Sturgis, MI

1:45 AM EST on February 08, 2016 (GMT -0500)
Kirsch Municipal

Weather History for KIRS - August, 2013

Change the Weather History Date:

Monday, August 26, 2013

  Actual Average (KHAI) Record (KHAI)
Temperature  
Mean Temperature 74 °F -  
Max Temperature 86 °F 81 °F 100 °F (1948)
Min Temperature 62 °F 57 °F 43 °F (1964)
Cooling Degree Days 9    
Growing Degree Days 24 (Base 50)    
Moisture  
Dew Point 66 °F    
Average Humidity 78    
Maximum Humidity 94    
Minimum Humidity 58    
Precipitation  
Precipitation 0.00 in - - ()
Sea Level Pressure  
Sea Level Pressure 30.12 in    
Wind  
Wind Speed 5 mph (SW)    
Max Wind Speed 15 mph    
Max Gust Speed 18 mph    
Visibility 10 miles    
Events      
Averages and records for this station are not official NWS values.
T = Trace of Precipitation, MM = Missing Value Source: NWS Daily Summary

Daily Weather History Graph

Daily Weather History Graph

Search for Another Location

Airport or City:

Trip Planner

Search our weather history database for the weather conditions in past years. The results will help you decide how hot, cold, wet, or windy it might be!

Date:

Astronomy

Aug. 26, 2013 Rise Set
Actual Time 7:01 AM EDT 8:24 PM EDT
Civil Twilight 6:32 AM EDT 8:53 PM EDT
Nautical Twilight 5:57 AM EDT 9:28 PM EDT
Astronomical Twilight 5:20 AM EDT 10:05 PM EDT
Moon 11:28 PM EDT (8/26) 1:08 PM EDT (8/26)
Length of Visible Light 14h 20m
Length of Day
13h 22m
Waning Gibbous, 67% of the Moon is Illuminated
Aug 26
Waning Gibbous
Aug 28
Last Quarter
Sep 5
New
Sep 12
First Quarter
Sep 19
Full

Hourly Weather History & Observations

Time (EDT) Temp. Heat Index Dew Point Humidity Pressure Visibility Wind Dir Wind Speed Gust Speed Precip Events Conditions
12:14 AM 69.8 °F - 64.4 °F 83% 30.22 in 10.0 mi SSW 4.6 mph - N/A   Clear
12:35 AM 68.0 °F - 62.6 °F 83% 30.21 in 10.0 mi SSW 4.6 mph - N/A   Clear
12:55 AM 68.0 °F - 62.6 °F 83% 30.21 in 10.0 mi SSW 3.5 mph - N/A   Clear
1:14 AM 68.0 °F - 62.6 °F 83% 30.21 in 10.0 mi SSW 3.5 mph - N/A   Clear
1:35 AM 66.2 °F - 62.6 °F 88% 30.20 in 10.0 mi SSW 4.6 mph - N/A   Clear
1:55 AM 66.2 °F - 62.6 °F 88% 30.19 in 10.0 mi SSW 3.5 mph - N/A   Clear
2:14 AM 66.2 °F - 62.6 °F 88% 30.18 in 10.0 mi Calm Calm - N/A   Clear
2:35 AM 66.2 °F - 62.6 °F 88% 30.17 in 10.0 mi SSW 4.6 mph - N/A   Clear
2:54 AM 64.4 °F - 60.8 °F 88% 30.17 in 10.0 mi SW 4.6 mph - N/A   Clear
3:15 AM 64.4 °F - 62.6 °F 94% 30.16 in 10.0 mi SW 3.5 mph - N/A   Clear
3:35 AM 64.4 °F - 60.8 °F 88% 30.17 in 10.0 mi Calm Calm - N/A   Clear
3:54 AM 64.4 °F - 60.8 °F 88% 30.17 in 10.0 mi SSW 3.5 mph - N/A   Clear
4:15 AM 66.2 °F - 60.8 °F 83% 30.17 in 10.0 mi Calm Calm - N/A   Clear
4:35 AM 64.4 °F - 60.8 °F 88% 30.18 in 10.0 mi SW 3.5 mph - N/A   Clear
4:54 AM 62.6 °F - 60.8 °F 94% 30.18 in 10.0 mi SSW 3.5 mph - N/A   Clear
5:15 AM 62.6 °F - 60.8 °F 94% 30.18 in 10.0 mi SW 3.5 mph - N/A   Clear
5:35 AM 64.4 °F - 60.8 °F 88% 30.17 in 10.0 mi SSW 3.5 mph - N/A   Clear
5:54 AM 64.4 °F - 60.8 °F 88% 30.17 in 10.0 mi SW 3.5 mph - N/A   Clear
6:15 AM 62.6 °F - 60.8 °F 94% 30.17 in 10.0 mi SW 3.5 mph - N/A   Clear
6:35 AM 62.6 °F - 60.8 °F 94% 30.18 in 10.0 mi SW 3.5 mph - N/A   Clear
6:54 AM 62.6 °F - 60.8 °F 94% 30.18 in 10.0 mi Calm Calm - N/A   Clear
7:15 AM 62.6 °F - 60.8 °F 94% 30.18 in 10.0 mi Calm Calm - N/A   Clear
7:34 AM 62.6 °F - 60.8 °F 94% 30.18 in 7.0 mi Calm Calm - N/A   Clear
7:55 AM 64.4 °F - 60.8 °F 88% 30.18 in 7.0 mi Calm Calm - N/A   Clear
8:15 AM 64.4 °F - 62.6 °F 94% 30.19 in 10.0 mi Calm Calm - N/A   Clear
8:35 AM 66.2 °F - 62.6 °F 88% 30.19 in 10.0 mi SSW 4.6 mph - N/A   Clear
8:55 AM 69.8 °F - 62.6 °F 78% 30.18 in 10.0 mi SW 4.6 mph - N/A   Clear
9:14 AM 71.6 °F - 62.6 °F 73% 30.18 in 10.0 mi SW 6.9 mph - N/A   Clear
9:35 AM 73.4 °F - 64.4 °F 73% 30.18 in 10.0 mi WSW 5.8 mph - N/A   Clear
9:55 AM 75.2 °F - 64.4 °F 69% 30.17 in 10.0 mi WSW 6.9 mph - N/A   Clear
10:14 AM 75.2 °F - 64.4 °F 69% 30.18 in 10.0 mi West 8.1 mph - N/A   Clear
10:35 AM 75.2 °F - 66.2 °F 73% 30.17 in 10.0 mi WSW 5.8 mph - N/A   Clear
10:55 AM 77.0 °F - 66.2 °F 69% 30.18 in 10.0 mi WSW 10.4 mph - N/A   Clear
11:14 AM 78.8 °F - 66.2 °F 65% 30.17 in 10.0 mi West 8.1 mph - N/A   Clear
11:35 AM 78.8 °F - 66.2 °F 65% 30.17 in 10.0 mi West 11.5 mph - N/A   Clear
11:55 AM 80.6 °F 83.2 °F 68.0 °F 65% 30.17 in 10.0 mi West 6.9 mph - N/A   Clear
12:14 PM 80.6 °F 83.2 °F 68.0 °F 65% 30.16 in 10.0 mi West 9.2 mph - N/A   Clear
12:35 PM 82.4 °F 85.4 °F 68.0 °F 62% 30.14 in 10.0 mi WSW 9.2 mph - N/A   Clear
12:54 PM 82.4 °F 84.6 °F 66.2 °F 58% 30.14 in 10.0 mi West 6.9 mph - N/A   Clear
1:14 PM 82.4 °F 84.6 °F 66.2 °F 58% 30.13 in 10.0 mi WSW 10.4 mph 16.1 mph N/A   Clear
1:33 PM 82.4 °F 85.4 °F 68.0 °F 62% 30.12 in 10.0 mi West 9.2 mph - N/A   Clear
1:54 PM 84.2 °F 87.3 °F 68.0 °F 58% 30.12 in 10.0 mi West 10.4 mph - N/A   Clear
2:15 PM 84.2 °F 88.4 °F 69.8 °F 62% 30.11 in 10.0 mi West 9.2 mph - N/A   Clear
2:35 PM 84.2 °F 88.4 °F 69.8 °F 62% 30.11 in 10.0 mi West 10.4 mph - N/A   Clear
2:54 PM 84.2 °F 88.4 °F 69.8 °F 62% 30.09 in 10.0 mi West 12.7 mph - N/A   Clear
3:15 PM 84.2 °F 88.4 °F 69.8 °F 62% 30.08 in 10.0 mi West 10.4 mph 16.1 mph N/A   Clear
3:35 PM 86.0 °F 91.8 °F 71.6 °F 62% 30.06 in 10.0 mi WSW 12.7 mph 16.1 mph N/A   Clear
3:54 PM 86.0 °F 91.8 °F 71.6 °F 62% 30.05 in 10.0 mi WSW 15.0 mph 18.4 mph N/A   Clear
4:15 PM 84.2 °F 89.6 °F 71.6 °F 66% 30.04 in 10.0 mi WSW 12.7 mph - N/A   Clear
4:35 PM 84.2 °F 89.6 °F 71.6 °F 66% 30.06 in 10.0 mi WSW 8.1 mph - N/A   Clear
4:54 PM 84.2 °F 89.6 °F 71.6 °F 66% 30.05 in 10.0 mi WSW 11.5 mph - N/A   Scattered Clouds
5:15 PM 82.4 °F 87.2 °F 71.6 °F 70% 30.06 in 10.0 mi WSW 8.1 mph - N/A   Clear
5:35 PM 84.2 °F 89.6 °F 71.6 °F 66% 30.06 in 10.0 mi WSW 10.4 mph - N/A   Clear
5:54 PM 84.2 °F 89.6 °F 71.6 °F 66% 30.05 in 10.0 mi WSW 12.7 mph - N/A   Clear
6:15 PM 82.4 °F 87.2 °F 71.6 °F 70% 30.06 in 10.0 mi WSW 11.5 mph - N/A   Clear
6:34 PM 84.2 °F 89.6 °F 71.6 °F 66% 30.05 in 10.0 mi WSW 9.2 mph - N/A   Clear
6:54 PM 82.4 °F 87.2 °F 71.6 °F 70% 30.05 in 10.0 mi WSW 9.2 mph - N/A   Clear
7:15 PM 82.4 °F 87.2 °F 71.6 °F 70% 30.05 in 10.0 mi WSW 10.4 mph - N/A   Clear
7:34 PM 82.4 °F 87.2 °F 71.6 °F 70% 30.05 in 10.0 mi WSW 8.1 mph - N/A   Clear
7:55 PM 80.6 °F 84.6 °F 71.6 °F 74% 30.05 in 10.0 mi WSW 5.8 mph - N/A   Clear
8:15 PM 78.8 °F - 71.6 °F 78% 30.05 in 10.0 mi SW 4.6 mph - N/A   Clear
8:34 PM 77.0 °F - 71.6 °F 83% 30.05 in 10.0 mi SW 4.6 mph - N/A   Clear
8:55 PM 75.2 °F - 71.6 °F 89% 30.05 in 10.0 mi SW 5.8 mph - N/A   Clear
9:15 PM 75.2 °F - 71.6 °F 89% 30.05 in 10.0 mi SW 5.8 mph - N/A   Clear
9:34 PM 75.2 °F - 71.6 °F 89% 30.04 in 10.0 mi SW 5.8 mph - N/A   Clear
9:55 PM 75.2 °F - 69.8 °F 83% 30.04 in 10.0 mi SW 6.9 mph - N/A   Clear
10:15 PM 75.2 °F - 69.8 °F 83% 30.04 in 10.0 mi SW 6.9 mph - N/A   Clear
10:34 PM 73.4 °F - 69.8 °F 88% 30.04 in 10.0 mi SW 4.6 mph - N/A   Clear
10:55 PM 73.4 °F - 69.8 °F 88% 30.04 in 10.0 mi WSW 6.9 mph - N/A   Clear
11:14 PM 73.4 °F - 69.8 °F 88% 30.04 in 10.0 mi SW 5.8 mph - N/A   Clear
11:35 PM 73.4 °F - 69.8 °F 88% 30.03 in 10.0 mi SW 6.9 mph - N/A   Clear
11:55 PM 73.4 °F - 69.8 °F 88% 30.03 in 10.0 mi SW 6.9 mph - N/A   Clear